Total_Precipitation_Accumulation
0.00 0.00 0.00 0.00 0.01 0.01 0.02 0.05 0.13 0.16 0.15 0.21 0.32 0.53 0.73 0.80 0.96 1.27 1.47 1.47 1.45 1.74 2.23 2.59 2.84 3.02 3.35 3.53 3.66 3.65 3.84 4.18 4.49 4.36 4.04 3.82 3.52 3.26 3.03 2.76 2.58 2.60 2.56 2.71
0.00 0.01 0.00 0.01 0.01 0.01 0.02 0.07 0.15 0.18 0.17 0.28 0.42 0.64 0.82 1.03 1.25 1.34 1.26 1.26 1.41 1.79 2.29 2.66 2.93 3.09 3.34 3.60 4.01 4.10 4.25 4.55 4.64 4.49 4.38 4.21 4.04 3.62 3.45 3.27 3.03 2.67 2.47 2.55
0.01 0.01 0.01 0.01 0.01 0.02 0.04 0.08 0.13 0.15 0.22 0.37 0.47 0.88 1.07 1.25 1.38 1.37 1.29 1.49 1.50 1.58 2.01 2.28 2.41 2.60 2.79 2.93 3.18 3.46 3.92 4.37 4.47 4.53 4.45 4.39 4.37 3.85 3.57 3.37 3.11 2.77 2.51 2.43
0.01 0.01 0.01 0.02 0.02 0.02 0.06 0.06 0.07 0.11 0.20 0.47 0.54 1.11 1.35 1.56 1.66 1.53 1.45 1.39 1.35 1.59 1.92 1.94 1.80 1.96 2.21 2.22 2.53 2.95 3.37 3.68 3.87 3.97 3.95 3.94 3.85 3.69 3.60 3.43 3.00 2.74 2.49 2.38
0.02 0.02 0.02 0.04 0.03 0.03 0.05 0.05 0.08 0.12 0.20 0.42 0.49 0.83 1.35 1.75 1.90 1.53 1.44 1.31 1.37 1.59 1.63 1.60 1.62 1.73 1.90 2.07 2.39 2.69 2.98 3.25 3.40 3.48 3.53 3.59 3.46 3.44 3.35 3.15 2.86 2.59 2.38 2.23
0.02 0.04 0.04 0.03 0.03 0.04 0.05 0.08 0.14 0.21 0.38 0.72 0.63 0.74 1.27 1.67 1.53 1.32 1.27 1.08 1.18 1.37 1.45 1.51 1.60 1.73 1.86 2.16 2.52 2.79 3.00 3.20 3.25 3.03 2.92 2.91 2.94 2.99 2.92 2.72 2.49 2.23 2.11 1.98
0.13 0.10 0.07 0.05 0.06 0.07 0.08 0.17 0.57 0.95 1.26 1.15 0.73 0.84 1.43 1.34 1.00 0.93 1.02 1.00 0.99 1.05 1.19 1.31 1.50 1.71 1.89 1.99 2.09 2.51 2.91 3.07 2.97 2.72 2.53 2.43 2.52 2.62 2.53 2.37 2.28 2.15 1.94 1.78
0.28 0.25 0.13 0.09 0.12 0.13 0.13 0.24 0.70 0.97 1.01 0.99 0.80 1.21 1.72 1.34 0.90 0.75 0.85 0.85 0.75 0.70 0.68 0.77 0.96 1.07 1.17 1.19 1.24 1.40 1.67 1.93 2.02 1.90 1.88 1.92 1.97 2.01 1.99 2.13 1.99 1.95 1.83 1.67
0.17 0.15 0.10 0.12 0.17 0.18 0.24 0.28 0.30 0.50 0.69 1.04 1.05 1.24 1.35 1.13 0.88 0.84 0.92 0.84 0.67 0.62 0.58 0.65 0.75 0.75 0.85 0.89 0.95 1.09 1.31 1.53 1.55 1.54 1.55 1.59 1.62 1.65 1.66 1.73 1.67 1.64 1.67 1.58
0.10 0.11 0.11 0.11 0.15 0.18 0.20 0.28 0.43 0.68 0.91 1.06 1.13 1.42 1.60 1.44 1.18 1.04 1.00 0.88 0.67 0.55 0.53 0.60 0.70 0.68 0.79 0.95 1.11 1.24 1.34 1.41 1.40 1.37 1.36 1.29 1.41 1.42 1.46 1.43 1.38 1.37 1.43 1.45
0.08 0.10 0.13 0.18 0.22 0.22 0.23 0.30 0.46 0.64 0.70 0.91 1.27 1.38 1.15 1.11 1.09 1.14 1.13 0.96 0.72 0.55 0.49 0.55 0.66 0.73 0.80 0.92 1.06 1.18 1.28 1.36 1.32 1.28 1.34 1.38 1.39 1.40 1.38 1.34 1.27 1.32 1.39 1.41
0.09 0.12 0.17 0.25 0.22 0.16 0.22 0.33 0.48 0.71 0.77 0.81 0.97 1.09 0.72 0.73 0.85 0.91 0.92 0.74 0.58 0.51 0.49 0.57 0.69 0.73 0.86 0.93 0.96 0.96 1.05 1.23 1.25 1.26 1.38 1.56 1.52 1.48 1.41 1.29 1.23 1.28 1.31 1.34
0.15 0.16 0.28 0.54 0.50 0.27 0.26 0.25 0.36 0.50 0.61 0.70 0.91 1.09 0.69 0.69 0.85 0.85 0.80 0.66 0.60 0.58 0.59 0.67 0.72 0.72 0.81 0.90 0.92 0.89 0.95 1.11 1.24 1.29 1.36 1.48 1.47 1.42 1.34 1.27 1.24 1.25 1.26 1.32
0.13 0.15 0.26 0.63 0.68 0.44 0.32 0.28 0.31 0.44 0.55 0.53 0.54 0.75 0.77 0.77 0.88 0.86 0.81 0.72 0.72 0.64 0.67 0.80 0.88 0.80 0.79 0.80 0.80 0.82 0.94 1.11 1.14 1.14 1.19 1.26 1.22 1.19 1.21 1.23 1.18 1.15 1.24 1.32
0.14 0.17 0.18 0.27 0.37 0.41 0.38 0.31 0.27 0.30 0.33 0.44 0.48 0.64 0.83 0.85 0.89 0.78 0.72 0.72 0.75 0.71 0.68 0.74 0.68 0.63 0.63 0.64 0.66 0.72 0.76 0.89 1.01 1.09 1.13 1.20 1.24 1.21 1.19 1.15 1.10 1.16 1.21 1.20
0.20 0.24 0.23 0.31 0.38 0.42 0.41 0.37 0.30 0.27 0.27 0.32 0.40 0.58 0.67 0.74 0.77 0.78 0.71 0.71 0.72 0.63 0.61 0.55 0.44 0.40 0.44 0.52 0.57 0.63 0.65 0.74 0.86 0.89 0.95 1.14 1.26 1.26 1.19 1.08 1.05 1.09 1.15 1.23
0.31 0.34 0.33 0.38 0.46 0.56 0.59 0.38 0.34 0.34 0.31 0.42 0.65 0.75 0.76 0.89 0.89 0.79 0.69 0.63 0.55 0.47 0.45 0.42 0.36 0.36 0.43 0.50 0.56 0.63 0.69 0.73 0.78 0.82 0.88 0.95 1.06 1.11 1.06 0.97 0.96 1.01 1.11 1.25
0.36 0.51 0.53 0.51 0.67 0.84 0.68 0.40 0.33 0.37 0.37 0.37 0.51 0.59 0.67 0.87 0.92 0.70 0.55 0.52 0.47 0.43 0.41 0.42 0.43 0.46 0.56 0.57 0.62 0.75 0.87 0.88 0.88 0.94 0.96 0.93 0.97 1.05 1.08 1.04 1.03 1.12 1.21 1.25
0.32 0.51 0.58 0.63 0.79 0.80 0.67 0.54 0.46 0.50 0.58 0.42 0.46 0.53 0.58 0.59 0.67 0.71 0.52 0.54 0.57 0.49 0.48 0.47 0.48 0.55 0.68 0.67 0.70 0.84 0.89 0.94 0.96 0.98 0.99 0.99 1.01 1.07 1.12 1.11 1.17 1.30 1.40 1.31
0.41 0.53 0.68 0.65 0.83 0.98 0.81 0.63 0.52 0.60 1.01 0.68 0.51 0.45 0.52 0.56 0.84 0.92 0.63 0.51 0.51 0.50 0.55 0.60 0.59 0.64 0.71 0.76 0.87 0.97 1.02 1.10 1.12 1.07 1.04 1.08 1.18 1.24 1.30 1.41 1.59 1.68 1.69 1.60
0.82 0.84 0.83 0.80 0.86 0.90 0.77 0.60 0.55 1.01 1.25 0.74 0.58 0.50 0.54 0.59 0.72 0.78 0.65 0.55 0.51 0.57 0.67 0.77 0.87 0.93 0.97 0.89 0.98 1.11 1.22 1.29 1.27 1.32 1.34 1.36 1.47 1.57 1.65 1.85 1.98 2.02 2.01 2.09
1.07 1.08 1.03 1.03 1.19 1.22 0.88 0.84 1.01 1.19 1.06 0.84 0.70 0.66 0.60 0.58 0.58 0.63 0.62 0.62 0.59 0.63 0.77 0.84 0.92 0.98 1.04 1.11 1.21 1.25 1.29 1.37 1.47 1.52 1.59 1.67 1.82 1.75 1.82 2.09 2.15 2.25 2.38 2.38
1.07 1.10 1.13 1.19 1.27 1.13 1.00 1.14 1.18 1.06 1.11 1.03 0.84 0.79 0.73 0.70 0.63 0.58 0.60 0.64 0.68 0.69 0.72 0.81 0.89 0.98 1.10 1.19 1.30 1.45 1.50 1.52 1.62 1.73 1.80 1.93 2.08 2.21 2.27 2.42 2.52 2.51 2.50 2.48
1.18 1.03 1.18 1.36 1.42 1.31 1.32 1.28 1.24 1.21 1.17 1.03 0.85 0.84 0.78 0.71 0.64 0.63 0.67 0.68 0.69 0.70 0.67 0.70 0.82 0.98 1.12 1.24 1.43 1.64 1.67 1.59 1.68 1.84 1.88 2.01 2.17 2.25 2.34 2.50 2.55 2.58 2.57 2.56
1.36 1.31 1.56 1.75 1.73 1.70 1.68 1.52 1.32 1.19 1.05 0.96 0.85 0.83 0.78 0.72 0.69 0.65 0.68 0.71 0.66 0.61 0.63 0.68 0.77 0.93 1.05 1.07 1.26 1.50 1.66 1.73 1.85 1.93 2.01 2.15 2.30 2.41 2.49 2.41 2.45 2.52 2.55 2.47
1.43 1.51 1.73 1.94 1.77 1.72 1.76 1.55 1.29 1.23 1.22 1.12 1.09 1.08 0.98 0.89 0.86 0.76 0.67 0.65 0.62 0.60 0.63 0.73 0.77 0.83 0.92 0.99 1.16 1.32 1.55 1.74 2.00 2.05 2.10 2.19 2.27 2.40 2.41 2.39 2.28 2.18 2.08 2.05